Location: Brompton
(51.4000°N, 0.5333°E)
Time: 16:12:21
(UTC+00:00)

Cosmos 1536 - Pass Details

Date: 02 October 2021
Orbit: 539 x 558 km, 82.5° (Epoch: 24 October)

Event Time Altitude Azimuth Distance (km) Brightness Sun altitude
Rises 03:25:16 0° 347° (NNW) 2,712 6.5 -24.3°
Reaches altitude 10° 03:27:27 10° 344° (NNW) 1,814 5.6 -24.0°
Enters shadow 03:29:04 23° 339° (NNW) 1,174 4.5 -23.7°
